| time (UTC) | temp F | wind direction | speed MPH | gust MPH | rain 1hr in | rain 24hr in | rain mn in | humidity % | barometer mb |
| 20260505003004 | 79 | 127 | 10.0 | 18.0 | 0.00 | 0.00 | 0.00 | 47 | 1017.6 |
| 20260505002005 | 80 | 143 | 9.0 | 24.0 | 0.00 | 0.00 | 0.00 | 46 | 1017.5 |
| 20260505001004 | 80 | 172 | 6.0 | 24.0 | 0.00 | 0.00 | 0.00 | 46 | 1017.5 |
| 20260505000004 | 81 | 180 | 10.0 | 23.0 | 0.00 | 0.00 | 0.00 | 46 | 1017.5 |
| 20260504235005 | 81 | 181 | 6.0 | 24.0 | 0.00 | 0.00 | 0.00 | 45 | 1017.4 |
| 20260504234005 | 82 | 158 | 6.0 | 22.0 | 0.00 | 0.00 | 0.00 | 45 | 1017.4 |
| 20260504233006 | 83 | 189 | 5.0 | 20.0 | 0.00 | 0.00 | 0.00 | 44 | 1017.3 |
| 20260504232057 | 84 | 149 | 8.0 | 18.0 | 0.00 | 0.00 | 0.00 | 44 | 1017.3 |
| 20260504231005 | 84 | 225 | 6.0 | 18.0 | 0.00 | 0.00 | 0.00 | 43 | 1017.6 |
| 20260504230005 | 85 | 214 | 3.0 | 20.0 | 0.00 | 0.00 | 0.00 | 43 | 1017.5 |
| 20260504225004 | 85 | 158 | 7.0 | 25.0 | 0.00 | 0.00 | 0.00 | 43 | 1017.8 |
| 20260504224004 | 85 | 160 | 7.0 | 20.0 | 0.00 | 0.00 | 0.00 | 42 | 1017.6 |
| 20260504221004 | 86 | 155 | 10.0 | 21.0 | 0.00 | 0.00 | 0.00 | 43 | 1017.7 |
| 20260504220004 | 86 | 137 | 9.0 | 18.0 | 0.00 | 0.00 | 0.00 | 44 | 1017.9 |
| 20260504215004 | 86 | 93 | 5.0 | 18.0 | 0.00 | 0.00 | 0.00 | 42 | 1018.0 |
| 20260504214004 | 86 | 203 | 9.0 | 23.0 | 0.00 | 0.00 | 0.00 | 39 | 1018.2 |
| 20260504210004 | 86 | 243 | 4.0 | 17.0 | 0.00 | 0.00 | 0.00 | 33 | 1018.3 |
| 20260504205004 | 86 | 148 | 10.0 | 17.0 | 0.00 | 0.00 | 0.00 | 34 | 1018.4 |
| 20260504204004 | 87 | 195 | 4.0 | 22.0 | 0.00 | 0.00 | 0.00 | 35 | 1018.7 |
| 20260504203005 | 86 | 162 | 9.0 | 22.0 | 0.00 | 0.00 | 0.00 | 36 | 1018.7 |
| 20260504202005 | 87 | 253 | 4.0 | 21.0 | 0.00 | 0.00 | 0.00 | 35 | 1018.8 |
| 20260504201004 | 85 | 196 | 2.0 | 21.0 | 0.00 | 0.00 | 0.00 | 38 | 1019.1 |
| 20260504200004 | 85 | 180 | 4.0 | 24.0 | 0.00 | 0.00 | 0.00 | 37 | 1019.3 |
| 20260504195004 | 85 | 167 | 5.0 | 22.0 | 0.00 | 0.00 | 0.00 | 38 | 1019.2 |
| 20260504194004 | 84 | 158 | 7.0 | 18.0 | 0.00 | 0.00 | 0.00 | 39 | 1019.4 |
| 20260504193004 | 86 | 172 | 7.0 | 16.0 | 0.00 | 0.00 | 0.00 | 38 | 1019.6 |
| 20260504192004 | 85 | 145 | 3.0 | 16.0 | 0.00 | 0.00 | 0.00 | 38 | 1019.6 |
| 20260504190018 | 84 | 133 | 7.0 | 18.0 | 0.00 | 0.00 | 0.00 | 40 | 1019.8 |
| 20260504185005 | 83 | 158 | 10.0 | 22.0 | 0.00 | 0.00 | 0.00 | 41 | 1020.0 |
| 20260504184010 | 84 | 178 | 7.0 | 22.0 | 0.00 | 0.00 | 0.00 | 41 | 1020.0 |
| 20260504183011 | 83 | 121 | 12.0 | 22.0 | 0.00 | 0.00 | 0.00 | 41 | 1020.1 |
| 20260504182009 | 83 | 168 | 5.0 | 15.0 | 0.00 | 0.00 | 0.00 | 41 | 1020.4 |
| 20260504180003 | 81 | 139 | 7.0 | 15.0 | 0.00 | 0.00 | 0.00 | 42 | 1020.7 |
| 20260504175004 | 82 | 268 | 3.0 | 13.0 | 0.00 | 0.00 | 0.00 | 43 | 1020.8 |
| 20260504174002 | 82 | 176 | 5.0 | 12.0 | 0.00 | 0.00 | 0.00 | 44 | 1021.0 |
| 20260504173002 | 81 | 181 | 2.0 | 13.0 | 0.00 | 0.00 | 0.00 | 43 | 1021.1 |
| 20260504172003 | 82 | 179 | 2.0 | 13.0 | 0.00 | 0.00 | 0.00 | 43 | 1021.3 |
| 20260504171004 | 82 | 211 | 2.0 | 12.0 | 0.00 | 0.00 | 0.00 | 44 | 1021.4 |
| 20260504151002 | 71 | 244 | 1.0 | 5.0 | 0.00 | 0.00 | 0.00 | 72 | 1022.1 |
| 20260504082003 | 62 | 81 | 0.0 | 2.0 | 0.00 | 0.00 | 0.00 | 93 | 1020.8 |
| 20260504081002 | 63 | 112 | 2.0 | 2.0 | 0.00 | 0.00 | 0.00 | 93 | 1020.9 |
| 20260504045004 | 67 | 138 | 10.0 | 22.0 | 0.00 | 0.00 | 0.00 | 91 | 1021.7 |
| 20260504044004 | 67 | 161 | 10.0 | 21.0 | 0.00 | 0.00 | 0.00 | 91 | 1021.4 |
| 20260504043003 | 67 | 154 | 6.0 | 21.0 | 0.00 | 0.00 | 0.00 | 91 | 1021.5 |
| 20260504042003 | 67 | 161 | 6.0 | 26.0 | 0.00 | 0.00 | 0.00 | 90 | 1021.3 |
| 20260504041003 | 68 | 142 | 14.0 | 28.0 | 0.00 | 0.00 | 0.00 | 90 | 1021.1 |
| 20260504040004 | 68 | 154 | 14.0 | 30.0 | 0.00 | 0.00 | 0.00 | 89 | 1021.0 |
| 20260504035004 | 68 | 120 | 17.0 | 30.0 | 0.00 | 0.00 | 0.00 | 89 | 1020.9 |
| 20260504034004 | 68 | 173 | 9.0 | 24.0 | 0.00 | 0.00 | 0.00 | 88 | 1020.6 |
| 20260504033004 | 68 | 148 | 12.0 | 29.0 | 0.00 | 0.00 | 0.00 | 89 | 1020.7 |
| 20260504032003 | 68 | 139 | 16.0 | 29.0 | 0.00 | 0.00 | 0.00 | 89 | 1020.5 |
| 20260504030007 | 69 | 164 | 10.0 | 25.0 | 0.00 | 0.00 | 0.00 | 88 | 1020.3 |
| 20260504025004 | 69 | 145 | 14.0 | 30.0 | 0.00 | 0.00 | 0.00 | 88 | 1020.0 |
| 20260504024004 | 69 | 137 | 9.0 | 29.0 | 0.00 | 0.00 | 0.00 | 88 | 1019.9 |
| 20260504023004 | 69 | 139 | 16.0 | 29.0 | 0.00 | 0.00 | 0.00 | 88 | 1019.9 |
| 20260504022003 | 69 | 136 | 13.0 | 29.0 | 0.00 | 0.00 | 0.00 | 88 | 1019.8 |
| 20260504021004 | 70 | 148 | 12.0 | 31.0 | 0.00 | 0.00 | 0.00 | 87 | 1019.5 |
| 20260504020003 | 70 | 137 | 21.0 | 31.0 | 0.00 | 0.00 | 0.00 | 86 | 1019.2 |
| 20260504015003 | 70 | 145 | 16.0 | 25.0 | 0.00 | 0.00 | 0.00 | 84 | 1019.2 |
| 20260504014003 | 71 | 153 | 10.0 | 25.0 | 0.00 | 0.00 | 0.00 | 83 | 1019.0 |
| 20260504013004 | 72 | 148 | 13.0 | 28.0 | 0.00 | 0.00 | 0.00 | 81 | 1018.9 |
| 20260504012003 | 73 | 149 | 17.0 | 25.0 | 0.00 | 0.00 | 0.00 | 78 | 1018.7 |
| 20260504011004 | 73 | 130 | 10.0 | 25.0 | 0.00 | 0.00 | 0.00 | 77 | 1018.6 |
| 20260504010004 | 74 | 161 | 10.0 | 24.0 | 0.00 | 0.00 | 0.00 | 75 | 1018.3 |
| 20260504004003 | 77 | 150 | 11.0 | 23.0 | 0.00 | 0.00 | 0.00 | 70 | 1018.1 |